| time (UTC) | temp C | wind direction | speed KPH | gust KPH | rain 1hr cm | rain 24hr cm | rain mn cm | humidity % | barometer mb |
| 20260504030756 | 7 | 358 | 1.6 | 1.6 | 0.00 | 0.00 | 0.00 | 62 | 1012.5 |
| 20260504030254 | 7 | 0 | 1.6 | 3.2 | 0.00 | 0.00 | 0.00 | 61 | 1012.5 |
| 20260504025750 | 8 | 315 | 0.0 | 1.6 | 0.00 | 0.00 | 0.00 | 60 | 1012.6 |
| 20260504025247 | 8 | 179 | 0.0 | 3.2 | 0.00 | 0.00 | 0.00 | 59 | 1012.6 |
| 20260504024744 | 7 | 146 | 0.0 | 3.2 | 0.00 | 0.00 | 0.00 | 60 | 1012.8 |
| 20260504024240 | 7 | 196 | 0.0 | 1.6 | 0.00 | 0.00 | 0.00 | 60 | 1012.6 |
| 20260504023737 | 7 | 6 | 0.0 | 0.0 | 0.00 | 0.00 | 0.00 | 60 | 1012.6 |
| 20260504023233 | 7 | 15 | 0.0 | 1.6 | 0.00 | 0.00 | 0.00 | 59 | 1012.6 |
| 20260504022729 | 8 | 357 | 1.6 | 1.6 | 0.00 | 0.00 | 0.00 | 59 | 1012.7 |
| 20260504022225 | 8 | 356 | 0.0 | 1.6 | 0.00 | 0.00 | 0.00 | 58 | 1012.9 |
| 20260504021723 | 8 | 342 | 0.0 | 1.6 | 0.00 | 0.00 | 0.00 | 58 | 1012.6 |
| 20260504021220 | 8 | 288 | 0.0 | 3.2 | 0.00 | 0.00 | 0.00 | 55 | 1012.6 |
| 20260504020717 | 8 | 173 | 3.2 | 4.8 | 0.00 | 0.00 | 0.00 | 55 | 1012.8 |
| 20260504020214 | 8 | 180 | 1.6 | 3.2 | 0.00 | 0.00 | 0.00 | 55 | 1012.6 |
| 20260504015710 | 8 | 319 | 0.0 | 0.0 | 0.00 | 0.00 | 0.00 | 56 | 1012.6 |
| 20260504015206 | 8 | 305 | 0.0 | 0.0 | 0.00 | 0.00 | 0.00 | 55 | 1012.6 |
| 20260504014702 | 8 | 305 | 0.0 | 0.0 | 0.00 | 0.00 | 0.00 | 54 | 1012.7 |
| 20260504014159 | 8 | 143 | 0.0 | 0.0 | 0.00 | 0.00 | 0.00 | 54 | 1012.6 |
| 20260504013657 | 9 | 327 | 0.0 | 0.0 | 0.00 | 0.00 | 0.00 | 54 | 1012.7 |
| 20260504013153 | 9 | 351 | 0.0 | 0.0 | 0.00 | 0.00 | 0.00 | 54 | 1012.5 |
| 20260504012650 | 9 | 200 | 0.0 | 0.0 | 0.00 | 0.00 | 0.00 | 53 | 1012.7 |
| 20260504012148 | 9 | 323 | 0.0 | 0.0 | 0.00 | 0.00 | 0.00 | 53 | 1012.4 |
| 20260504011645 | 10 | 332 | 0.0 | 1.6 | 0.00 | 0.00 | 0.00 | 52 | 1012.6 |
| 20260504011142 | 10 | 216 | 0.0 | 0.0 | 0.00 | 0.00 | 0.00 | 52 | 1012.6 |
| 20260504010637 | 10 | 135 | 0.0 | 0.0 | 0.00 | 0.00 | 0.00 | 50 | 1012.7 |
| 20260504010133 | 10 | 187 | 0.0 | 1.6 | 0.00 | 0.00 | 0.00 | 48 | 1012.6 |
| 20260504005631 | 11 | 234 | 0.0 | 0.0 | 0.00 | 0.00 | 0.00 | 48 | 1012.6 |
| 20260504005127 | 11 | 166 | 0.0 | 3.2 | 0.00 | 0.00 | 0.00 | 46 | 1012.5 |
| 20260504004626 | 11 | 178 | 0.0 | 3.2 | 0.00 | 0.00 | 0.00 | 47 | 1012.5 |
| 20260504004122 | 11 | 218 | 3.2 | 4.8 | 0.00 | 0.00 | 0.00 | 45 | 1012.5 |
| 20260504003619 | 12 | 226 | 0.0 | 4.8 | 0.00 | 0.00 | 0.00 | 44 | 1012.4 |
| 20260504003115 | 12 | 255 | 3.2 | 6.4 | 0.00 | 0.00 | 0.00 | 44 | 1012.3 |
| 20260504002612 | 12 | 254 | 4.8 | 16.1 | 0.00 | 0.00 | 0.00 | 43 | 1012.4 |
| 20260504002110 | 12 | 217 | 6.4 | 11.3 | 0.00 | 0.00 | 0.00 | 43 | 1012.5 |
| 20260504001608 | 12 | 240 | 8.0 | 9.7 | 0.00 | 0.00 | 0.00 | 43 | 1012.4 |
| 20260504001103 | 12 | 226 | 9.7 | 12.9 | 0.00 | 0.00 | 0.00 | 42 | 1012.5 |
| 20260504000600 | 12 | 245 | 6.4 | 16.1 | 0.00 | 0.00 | 0.00 | 42 | 1012.6 |
| 20260504000058 | 12 | 252 | 3.2 | 6.4 | 0.00 | 0.00 | 0.00 | 42 | 1012.6 |
| 20260503235556 | 12 | 246 | 12.9 | 22.5 | 0.00 | 0.00 | 0.00 | 41 | 1012.5 |
| 20260503235053 | 12 | 233 | 6.4 | 20.9 | 0.00 | 0.00 | 0.00 | 42 | 1012.6 |
| 20260503234550 | 13 | 236 | 3.2 | 19.3 | 0.00 | 0.00 | 0.00 | 41 | 1012.6 |
| 20260503234048 | 13 | 238 | 8.0 | 8.0 | 0.00 | 0.00 | 0.00 | 42 | 1012.7 |
| 20260503233544 | 13 | 233 | 3.2 | 9.7 | 0.00 | 0.00 | 0.00 | 41 | 1012.8 |
| 20260503233040 | 13 | 250 | 12.9 | 14.5 | 0.00 | 0.00 | 0.00 | 40 | 1012.7 |
| 20260503232538 | 13 | 217 | 6.4 | 11.3 | 0.00 | 0.00 | 0.00 | 40 | 1012.7 |
| 20260503232035 | 13 | 250 | 9.7 | 11.3 | 0.00 | 0.00 | 0.00 | 41 | 1012.7 |
| 20260503231533 | 13 | 237 | 9.7 | 17.7 | 0.00 | 0.00 | 0.00 | 40 | 1012.7 |
| 20260503231029 | 13 | 234 | 9.7 | 20.9 | 0.00 | 0.00 | 0.00 | 39 | 1012.6 |
| 20260503230526 | 13 | 252 | 9.7 | 24.1 | 0.00 | 0.00 | 0.00 | 38 | 1012.6 |
| 20260503230024 | 13 | 225 | 6.4 | 14.5 | 0.00 | 0.00 | 0.00 | 40 | 1012.7 |
| 20260503225520 | 13 | 259 | 4.8 | 24.1 | 0.00 | 0.00 | 0.00 | 39 | 1012.8 |
| 20260503225015 | 13 | 228 | 9.7 | 19.3 | 0.00 | 0.00 | 0.00 | 39 | 1012.8 |
| 20260503224513 | 13 | 207 | 11.3 | 27.4 | 0.00 | 0.00 | 0.00 | 39 | 1012.7 |
| 20260503224011 | 13 | 256 | 16.1 | 27.4 | 0.00 | 0.00 | 0.00 | 38 | 1012.7 |
| 20260503223509 | 14 | 257 | 9.7 | 17.7 | 0.00 | 0.00 | 0.00 | 40 | 1012.7 |
| 20260503223004 | 14 | 250 | 12.9 | 17.7 | 0.00 | 0.00 | 0.00 | 37 | 1012.9 |
| 20260503222502 | 13 | 299 | 14.5 | 20.9 | 0.00 | 0.00 | 0.00 | 38 | 1012.9 |
| 20260503222000 | 14 | 254 | 16.1 | 20.9 | 0.00 | 0.00 | 0.00 | 37 | 1012.8 |
| 20260503221458 | 14 | 196 | 11.3 | 17.7 | 0.00 | 0.00 | 0.00 | 37 | 1012.8 |
| 20260503220955 | 14 | 243 | 6.4 | 20.9 | 0.00 | 0.00 | 0.00 | 39 | 1012.9 |
| 20260503220451 | 15 | 231 | 12.9 | 16.1 | 0.00 | 0.00 | 0.00 | 37 | 1012.8 |
| 20260503215948 | 14 | 226 | 4.8 | 12.9 | 0.00 | 0.00 | 0.00 | 39 | 1013.0 |
| 20260503215445 | 14 | 215 | 9.7 | 17.7 | 0.00 | 0.00 | 0.00 | 37 | 1012.9 |
| 20260503214943 | 14 | 237 | 14.5 | 20.9 | 0.00 | 0.00 | 0.00 | 36 | 1013.0 |
| 20260503214440 | 15 | 196 | 20.9 | 25.7 | 0.00 | 0.00 | 0.00 | 35 | 1012.9 |
| 20260503213937 | 15 | 227 | 9.7 | 16.1 | 0.00 | 0.00 | 0.00 | 37 | 1012.9 |
| 20260503213436 | 15 | 225 | 11.3 | 22.5 | 0.00 | 0.00 | 0.00 | 38 | 1012.7 |
| 20260503212931 | 15 | 212 | 9.7 | 22.5 | 0.00 | 0.00 | 0.00 | 37 | 1012.6 |
| 20260503212429 | 15 | 226 | 14.5 | 17.7 | 0.00 | 0.00 | 0.00 | 36 | 1012.8 |
| 20260503211926 | 15 | 211 | 11.3 | 22.5 | 0.00 | 0.00 | 0.00 | 35 | 1012.5 |
| 20260503211423 | 15 | 243 | 8.0 | 9.7 | 0.00 | 0.00 | 0.00 | 40 | 1012.6 |
| 20260503210918 | 15 | 265 | 6.4 | 11.3 | 0.00 | 0.00 | 0.00 | 38 | 1012.7 |
| 20260503210416 | 14 | 232 | 9.7 | 12.9 | 0.00 | 0.00 | 0.00 | 41 | 1012.7 |
| 20260503205910 | 15 | 269 | 11.3 | 20.9 | 0.00 | 0.00 | 0.00 | 36 | 1012.6 |
| 20260503205408 | 15 | 202 | 9.7 | 17.7 | 0.00 | 0.00 | 0.00 | 37 | 1012.6 |
| 20260503204903 | 15 | 228 | 11.3 | 16.1 | 0.00 | 0.00 | 0.00 | 36 | 1012.7 |
| 20260503204400 | 15 | 244 | 22.5 | 29.0 | 0.00 | 0.00 | 0.00 | 34 | 1012.8 |
| 20260503203858 | 15 | 218 | 20.9 | 33.8 | 0.00 | 0.00 | 0.00 | 35 | 1013.0 |
| 20260503203355 | 15 | 250 | 14.5 | 24.1 | 0.00 | 0.00 | 0.00 | 35 | 1012.9 |
| 20260503202852 | 15 | 208 | 11.3 | 17.7 | 0.00 | 0.00 | 0.00 | 37 | 1013.1 |
| 20260503202350 | 15 | 239 | 6.4 | 19.3 | 0.00 | 0.00 | 0.00 | 39 | 1012.9 |
| 20260503201849 | 14 | 223 | 9.7 | 14.5 | 0.00 | 0.00 | 0.00 | 38 | 1013.2 |
| 20260503201345 | 14 | 180 | 6.4 | 20.9 | 0.00 | 0.00 | 0.00 | 37 | 1013.3 |
| 20260503200843 | 15 | 241 | 14.5 | 24.1 | 0.00 | 0.00 | 0.00 | 38 | 1013.5 |
| 20260503200338 | 15 | 226 | 17.7 | 24.1 | 0.00 | 0.00 | 0.00 | 37 | 1013.2 |
| 20260503195836 | 15 | 225 | 14.5 | 29.0 | 0.00 | 0.00 | 0.00 | 37 | 1013.5 |
| 20260503195332 | 15 | 188 | 4.8 | 11.3 | 0.00 | 0.00 | 0.00 | 36 | 1013.6 |
| 20260503194830 | 14 | 183 | 4.8 | 12.9 | 0.00 | 0.00 | 0.00 | 36 | 1013.7 |
| 20260503194325 | 15 | 189 | 11.3 | 14.5 | 0.00 | 0.00 | 0.00 | 35 | 1013.6 |
| 20260503193822 | 14 | 204 | 6.4 | 16.1 | 0.00 | 0.00 | 0.00 | 38 | 1013.8 |
| 20260503193318 | 14 | 236 | 14.5 | 22.5 | 0.00 | 0.00 | 0.00 | 36 | 1013.9 |
| 20260503192814 | 15 | 226 | 8.0 | 14.5 | 0.00 | 0.00 | 0.00 | 38 | 1013.9 |
| 20260503192309 | 15 | 222 | 17.7 | 25.7 | 0.00 | 0.00 | 0.00 | 36 | 1014.0 |
| 20260503191806 | 15 | 249 | 6.4 | 20.9 | 0.00 | 0.00 | 0.00 | 37 | 1014.1 |
| 20260503191303 | 14 | 191 | 6.4 | 9.7 | 0.00 | 0.00 | 0.00 | 39 | 1014.1 |
| 20260503190800 | 15 | 285 | 11.3 | 16.1 | 0.00 | 0.00 | 0.00 | 37 | 1014.2 |
| 20260503190256 | 15 | 259 | 16.1 | 22.5 | 0.00 | 0.00 | 0.00 | 37 | 1014.4 |
| 20260503185754 | 15 | 255 | 14.5 | 32.2 | 0.00 | 0.00 | 0.00 | 37 | 1014.4 |
| 20260503185249 | 15 | 225 | 11.3 | 24.1 | 0.00 | 0.00 | 0.00 | 38 | 1014.4 |
| 20260503184744 | 14 | 224 | 12.9 | 17.7 | 0.00 | 0.00 | 0.00 | 39 | 1014.5 |
| 20260503184241 | 13 | 272 | 8.0 | 22.5 | 0.00 | 0.00 | 0.00 | 36 | 1014.9 |
| 20260503183737 | 15 | 278 | 11.3 | 24.1 | 0.00 | 0.00 | 0.00 | 35 | 1014.6 |
| 20260503183235 | 15 | 255 | 17.7 | 24.1 | 0.00 | 0.00 | 0.00 | 38 | 1014.6 |
| 20260503182733 | 15 | 225 | 20.9 | 27.4 | 0.00 | 0.00 | 0.00 | 40 | 1014.6 |
| 20260503182232 | 14 | 236 | 14.5 | 40.2 | 0.00 | 0.00 | 0.00 | 41 | 1014.7 |
| 20260503181728 | 13 | 202 | 16.1 | 25.7 | 0.00 | 0.00 | 0.00 | 38 | 1014.7 |
| 20260503181225 | 14 | 213 | 12.9 | 24.1 | 0.00 | 0.00 | 0.00 | 39 | 1014.7 |
| 20260503180721 | 14 | 248 | 8.0 | 29.0 | 0.00 | 0.00 | 0.00 | 39 | 1014.9 |
| 20260503180220 | 14 | 255 | 6.4 | 22.5 | 0.00 | 0.00 | 0.00 | 41 | 1015.0 |
| 20260503175716 | 13 | 229 | 17.7 | 19.3 | 0.00 | 0.00 | 0.00 | 41 | 1014.7 |
| 20260503175214 | 13 | 269 | 9.7 | 12.9 | 0.00 | 0.00 | 0.00 | 39 | 1015.0 |
| 20260503174709 | 13 | 225 | 12.9 | 24.1 | 0.00 | 0.00 | 0.00 | 42 | 1015.0 |
| 20260503174207 | 13 | 249 | 20.9 | 24.1 | 0.00 | 0.00 | 0.00 | 43 | 1015.4 |
| 20260503173708 | 13 | 207 | 11.3 | 16.1 | 0.00 | 0.00 | 0.00 | 43 | 1015.2 |
| 20260503173204 | 13 | 230 | 22.5 | 30.6 | 0.00 | 0.00 | 0.00 | 39 | 1015.5 |
| 20260503172701 | 13 | 215 | 14.5 | 16.1 | 0.00 | 0.00 | 0.00 | 40 | 1015.5 |
| 20260503172158 | 13 | 245 | 11.3 | 24.1 | 0.00 | 0.00 | 0.00 | 40 | 1015.4 |
| 20260503171654 | 13 | 227 | 14.5 | 30.6 | 0.00 | 0.00 | 0.00 | 40 | 1015.5 |
| 20260503171152 | 13 | 217 | 19.3 | 22.5 | 0.00 | 0.00 | 0.00 | 44 | 1015.6 |
| 20260503170648 | 13 | 208 | 22.5 | 33.8 | 0.00 | 0.00 | 0.00 | 38 | 1015.7 |
| 20260503170145 | 13 | 272 | 12.9 | 20.9 | 0.00 | 0.00 | 0.00 | 41 | 1015.9 |
| 20260503160107 | 11 | 223 | 22.5 | 27.4 | 0.00 | 0.00 | 0.00 | 40 | 1016.3 |
| 20260503150537 | 10 | 231 | 6.4 | 16.1 | 0.00 | 0.00 | 0.00 | 43 | 1016.5 |
| 20260503130927 | 7 | 285 | 6.4 | 17.7 | 0.00 | 0.00 | 0.00 | 63 | 1016.9 |
| 20260503130425 | 6 | 215 | 8.0 | 12.9 | 0.00 | 0.00 | 0.00 | 67 | 1016.9 |
| 20260503110823 | 0 | 100 | 0.0 | 1.6 | 0.00 | 0.00 | 0.00 | 99 | 1016.1 |
| 20260503110320 | 0 | 64 | 0.0 | 0.0 | 0.00 | 0.00 | 0.00 | 98 | 1016.0 |
| 20260503100246 | -1 | 44 | 0.0 | 0.0 | 0.00 | 0.00 | 0.00 | 98 | 1015.5 |
| 20260503090206 | 0 | 356 | 0.0 | 1.6 | 0.00 | 0.00 | 0.00 | 97 | 1015.6 |
| 20260503081636 | 0 | 326 | 0.0 | 3.2 | 0.00 | 0.00 | 0.00 | 96 | 1015.4 |
| 20260503081132 | 0 | 325 | 0.0 | 1.6 | 0.00 | 0.00 | 0.00 | 95 | 1015.4 |
| 20260503080628 | 0 | 346 | 0.0 | 0.0 | 0.00 | 0.00 | 0.00 | 96 | 1015.5 |
| 20260503080126 | 0 | 346 | 0.0 | 0.0 | 0.00 | 0.00 | 0.00 | 96 | 1015.7 |
| 20260503072602 | 0 | 342 | 0.0 | 1.6 | 0.00 | 0.00 | 0.00 | 95 | 1015.5 |
| 20260503072100 | 0 | 177 | 0.0 | 0.0 | 0.00 | 0.00 | 0.00 | 94 | 1015.3 |
| 20260503071556 | 0 | 335 | 0.0 | 0.0 | 0.00 | 0.00 | 0.00 | 94 | 1015.4 |
| 20260503071053 | 0 | 335 | 0.0 | 0.0 | 0.00 | 0.00 | 0.00 | 94 | 1015.4 |
| 20260503070549 | 1 | 335 | 0.0 | 0.0 | 0.00 | 0.00 | 0.00 | 94 | 1015.4 |
| 20260503055009 | 0 | 9 | 0.0 | 0.0 | 0.00 | 0.00 | 0.00 | 96 | 1015.4 |
| 20260503054504 | 0 | 173 | 0.0 | 0.0 | 0.00 | 0.00 | 0.00 | 96 | 1015.6 |
| 20260503054002 | 0 | 27 | 0.0 | 0.0 | 0.00 | 0.00 | 0.00 | 96 | 1015.4 |
| 20260503053500 | 0 | 27 | 0.0 | 0.0 | 0.00 | 0.00 | 0.00 | 96 | 1015.6 |
| 20260503052956 | 0 | 305 | 0.0 | 0.0 | 0.00 | 0.00 | 0.00 | 96 | 1015.7 |
| 20260503052454 | 0 | 305 | 0.0 | 0.0 | 0.00 | 0.00 | 0.00 | 96 | 1015.7 |
| 20260503051950 | 0 | 305 | 0.0 | 0.0 | 0.00 | 0.00 | 0.00 | 96 | 1015.8 |
| 20260503051446 | 0 | 305 | 0.0 | 1.6 | 0.00 | 0.00 | 0.00 | 96 | 1015.6 |
| 20260503050943 | 0 | 333 | 0.0 | 0.0 | 0.00 | 0.00 | 0.00 | 96 | 1015.7 |
| 20260503050439 | 0 | 333 | 0.0 | 0.0 | 0.00 | 0.00 | 0.00 | 95 | 1015.6 |
| 20260503045937 | 0 | 333 | 0.0 | 0.0 | 0.00 | 0.00 | 0.00 | 95 | 1015.6 |
| 20260503045435 | 0 | 338 | 1.6 | 1.6 | 0.00 | 0.00 | 0.00 | 95 | 1015.6 |
| 20260503044931 | 0 | 342 | 3.2 | 3.2 | 0.00 | 0.00 | 0.00 | 95 | 1015.8 |
| 20260503044428 | 0 | 214 | 0.0 | 1.6 | 0.00 | 0.00 | 0.00 | 95 | 1015.6 |
| 20260503043925 | 0 | 297 | 0.0 | 0.0 | 0.05 | 0.00 | 0.00 | 94 | 1015.6 |
| 20260503043421 | 0 | 314 | 0.0 | 1.6 | 0.05 | 0.00 | 0.00 | 94 | 1015.6 |
| 20260503042918 | 0 | 333 | 0.0 | 0.0 | 0.00 | 0.00 | 0.00 | 94 | 1015.7 |
| 20260503042415 | 0 | 333 | 0.0 | 0.0 | 0.00 | 0.00 | 0.00 | 94 | 1015.8 |
| 20260503041911 | 0 | 333 | 0.0 | 0.0 | 0.00 | 0.00 | 0.00 | 93 | 1015.7 |
| 20260503041408 | 0 | 333 | 0.0 | 0.0 | 0.00 | 0.00 | 0.00 | 93 | 1015.8 |
| 20260503040906 | 0 | 333 | 0.0 | 1.6 | 0.00 | 0.00 | 0.00 | 92 | 1016.0 |
| 20260503040403 | 0 | 353 | 1.6 | 1.6 | 0.00 | 0.00 | 0.00 | 92 | 1015.8 |
| 20260503035900 | 0 | 27 | 0.0 | 0.0 | 0.00 | 0.08 | 0.08 | 92 | 1016.1 |
| 20260503035357 | 0 | 27 | 0.0 | 0.0 | 0.00 | 0.08 | 0.08 | 92 | 1015.7 |
| 20260503034854 | 0 | 14 | 1.6 | 1.6 | 0.00 | 0.08 | 0.08 | 91 | 1015.8 |
| 20260503034352 | 0 | 14 | 0.0 | 1.6 | 0.00 | 0.08 | 0.08 | 90 | 1015.8 |
| 20260503033849 | 0 | 220 | 0.0 | 0.0 | 0.00 | 0.08 | 0.08 | 90 | 1015.9 |
| 20260503033346 | 1 | 312 | 0.0 | 0.0 | 0.00 | 0.08 | 0.08 | 89 | 1015.9 |
| 20260503032844 | 1 | 312 | 1.6 | 1.6 | 0.00 | 0.08 | 0.08 | 88 | 1015.9 |
| 20260503032343 | 1 | 321 | 0.0 | 1.6 | 0.00 | 0.08 | 0.08 | 88 | 1015.8 |
| 20260503031840 | 1 | 216 | 0.0 | 1.6 | 0.00 | 0.08 | 0.08 | 87 | 1015.9 |
| 20260503031337 | 1 | 200 | 0.0 | 0.0 | 0.00 | 0.08 | 0.08 | 85 | 1015.9 |